Location: Gebenbach
(49.5378°N, 11.8735°E)
Time: 14:36:51
(UTC+00:00)

Cosmos 2278 - Pass Details

Date: 29 October 2020
Orbit: 841 x 851 km, 71.1° (Epoch: 28 November)

Event Time Altitude Azimuth Distance (km) Brightness Sun altitude
Rises 18:03:34 0° 193° (SSW) 3,398 7.0 -21.3°
Reaches altitude 10° 18:06:03 10° 189° (S) 2,466 6.2 -21.7°
Maximum altitude 18:11:34 58° 112° (ESE) 986 3.7 -22.6°
Enters shadow 18:12:42 49° 69° (ENE) 1,088 3.9 -22.8°
